| time (UTC) | temp C | wind direction | speed KPH | gust KPH | rain 1hr cm | rain 24hr cm | rain mn cm | humidity % | barometer mb |
| 20260510052010 | 21 | 92 | 6.4 | 6.4 | 0.00 | 0.00 | 0.00 | 98 | 1013.7 |
| 20260510051505 | 21 | 99 | 3.2 | 3.2 | 0.00 | 0.00 | 0.00 | 98 | 1013.4 |
| 20260510051002 | 21 | 107 | 6.4 | 9.7 | 0.00 | 0.00 | 0.00 | 98 | 1013.4 |
| 20260510050459 | 21 | 92 | 3.2 | 4.8 | 0.00 | 0.00 | 0.00 | 98 | 1013.4 |
| 20260510045956 | 21 | 103 | 3.2 | 4.8 | 0.00 | 0.00 | 0.00 | 98 | 1013.2 |
| 20260510045454 | 21 | 121 | 4.8 | 4.8 | 0.00 | 0.00 | 0.00 | 98 | 1012.6 |
| 20260510044950 | 21 | 117 | 6.4 | 9.7 | 0.00 | 0.00 | 0.00 | 98 | 1012.4 |
| 20260510044447 | 21 | 123 | 4.8 | 4.8 | 0.00 | 0.00 | 0.00 | 97 | 1012.4 |
| 20260510043944 | 21 | 115 | 6.4 | 6.4 | 0.00 | 0.00 | 0.00 | 97 | 1012.5 |
| 20260510043439 | 21 | 114 | 6.4 | 9.7 | 0.00 | 0.00 | 0.00 | 97 | 1012.5 |
| 20260510042938 | 21 | 123 | 4.8 | 4.8 | 0.00 | 0.00 | 0.00 | 96 | 1012.4 |
| 20260510042434 | 22 | 108 | 4.8 | 6.4 | 0.00 | 0.00 | 0.00 | 96 | 1012.6 |
| 20260510041929 | 22 | 115 | 3.2 | 4.8 | 0.00 | 0.00 | 0.00 | 96 | 1012.4 |
| 20260510041427 | 22 | 120 | 4.8 | 6.4 | 0.00 | 0.00 | 0.00 | 96 | 1012.3 |
| 20260510040925 | 22 | 124 | 4.8 | 6.4 | 0.00 | 0.00 | 0.00 | 96 | 1012.2 |
| 20260510040422 | 22 | 125 | 6.4 | 6.4 | 0.00 | 0.00 | 0.00 | 96 | 1012.3 |
| 20260510035917 | 22 | 116 | 3.2 | 4.8 | 0.00 | 0.00 | 0.00 | 95 | 1012.1 |
| 20260510035414 | 22 | 124 | 3.2 | 3.2 | 0.00 | 0.00 | 0.00 | 95 | 1012.3 |
| 20260510034914 | 22 | 124 | 4.8 | 4.8 | 0.00 | 0.00 | 0.00 | 95 | 1012.2 |
| 20260510034413 | 22 | 129 | 3.2 | 4.8 | 0.00 | 0.00 | 0.00 | 95 | 1012.0 |
| 20260510033908 | 22 | 119 | 6.4 | 6.4 | 0.00 | 0.00 | 0.00 | 94 | 1011.9 |
| 20260510033405 | 22 | 114 | 6.4 | 6.4 | 0.00 | 0.00 | 0.00 | 94 | 1011.9 |
| 20260510032902 | 22 | 127 | 3.2 | 3.2 | 0.00 | 0.00 | 0.00 | 94 | 1012.0 |
| 20260510032359 | 22 | 111 | 4.8 | 4.8 | 0.00 | 0.00 | 0.00 | 93 | 1011.9 |
| 20260510031854 | 22 | 122 | 6.4 | 6.4 | 0.00 | 0.00 | 0.00 | 93 | 1012.0 |
| 20260510031349 | 22 | 125 | 4.8 | 4.8 | 0.00 | 0.00 | 0.00 | 92 | 1011.7 |
| 20260510030849 | 22 | 121 | 6.4 | 6.4 | 0.00 | 0.00 | 0.00 | 91 | 1012.0 |
| 20260510030346 | 22 | 124 | 6.4 | 6.4 | 0.00 | 0.00 | 0.00 | 92 | 1011.9 |
| 20260510025844 | 22 | 111 | 6.4 | 6.4 | 0.00 | 0.00 | 0.00 | 91 | 1011.9 |
| 20260510025341 | 22 | 149 | 4.8 | 4.8 | 0.00 | 0.00 | 0.00 | 91 | 1011.9 |
| 20260510024838 | 22 | 149 | 3.2 | 3.2 | 0.00 | 0.00 | 0.00 | 91 | 1011.8 |
| 20260510024334 | 22 | 149 | 4.8 | 4.8 | 0.00 | 0.00 | 0.00 | 90 | 1011.9 |
| 20260510023831 | 22 | 149 | 3.2 | 3.2 | 0.00 | 0.00 | 0.00 | 90 | 1011.6 |
| 20260510023327 | 22 | 149 | 1.6 | 3.2 | 0.00 | 0.00 | 0.00 | 90 | 1011.9 |
| 20260510022824 | 22 | 149 | 3.2 | 3.2 | 0.00 | 0.00 | 0.00 | 88 | 1011.8 |
| 20260510022323 | 22 | 149 | 0.0 | 0.0 | 0.00 | 0.00 | 0.00 | 89 | 1011.7 |
| 20260510021823 | 22 | 149 | 1.6 | 1.6 | 0.00 | 0.00 | 0.00 | 90 | 1011.7 |
| 20260510021321 | 22 | 149 | 0.0 | 0.0 | 0.00 | 0.00 | 0.00 | 89 | 1011.8 |
| 20260510020817 | 22 | 149 | 0.0 | 0.0 | 0.00 | 0.00 | 0.00 | 88 | 1011.7 |
| 20260510020312 | 22 | 144 | 0.0 | 0.0 | 0.00 | 0.00 | 0.00 | 88 | 1011.6 |
| 20260510015808 | 23 | 144 | 0.0 | 0.0 | 0.00 | 0.00 | 0.00 | 87 | 1011.6 |
| 20260510015306 | 23 | 144 | 0.0 | 0.0 | 0.00 | 0.00 | 0.00 | 86 | 1011.6 |
| 20260510014759 | 23 | 144 | 0.0 | 1.6 | 0.00 | 0.00 | 0.00 | 86 | 1011.6 |
| 20260510014256 | 23 | 144 | 0.0 | 1.6 | 0.00 | 0.00 | 0.00 | 85 | 1011.5 |
| 20260510013753 | 23 | 144 | 0.0 | 0.0 | 0.00 | 0.00 | 0.00 | 85 | 1011.4 |
| 20260510013249 | 23 | 144 | 0.0 | 1.6 | 0.00 | 0.00 | 0.00 | 84 | 1011.3 |
| 20260510012749 | 23 | 144 | 0.0 | 0.0 | 0.00 | 0.00 | 0.00 | 82 | 1011.3 |
| 20260510012243 | 24 | 144 | 1.6 | 1.6 | 0.00 | 0.00 | 0.00 | 82 | 1011.3 |
| 20260510011738 | 24 | 144 | 1.6 | 3.2 | 0.00 | 0.00 | 0.00 | 81 | 1011.0 |
| 20260510011234 | 25 | 144 | 3.2 | 3.2 | 0.00 | 0.00 | 0.00 | 78 | 1010.9 |
| 20260510010731 | 25 | 144 | 1.6 | 3.2 | 0.00 | 0.00 | 0.00 | 78 | 1010.9 |
| 20260510010227 | 25 | 144 | 3.2 | 3.2 | 0.00 | 0.00 | 0.00 | 78 | 1010.8 |
| 20260510005724 | 25 | 144 | 1.6 | 1.6 | 0.00 | 0.00 | 0.00 | 77 | 1010.7 |
| 20260510005220 | 26 | 144 | 3.2 | 3.2 | 0.00 | 0.00 | 0.00 | 76 | 1010.7 |
| 20260510004719 | 26 | 144 | 3.2 | 3.2 | 0.00 | 0.00 | 0.00 | 75 | 1010.7 |
| 20260510004216 | 26 | 144 | 3.2 | 3.2 | 0.00 | 0.00 | 0.00 | 74 | 1010.7 |
| 20260510003714 | 26 | 144 | 3.2 | 3.2 | 0.00 | 0.00 | 0.00 | 73 | 1010.8 |
| 20260510003209 | 26 | 144 | 3.2 | 3.2 | 0.00 | 0.00 | 0.00 | 71 | 1010.7 |
| 20260510002708 | 26 | 144 | 3.2 | 3.2 | 0.00 | 0.00 | 0.00 | 72 | 1010.5 |
| 20260510002206 | 27 | 144 | 3.2 | 3.2 | 0.00 | 0.00 | 0.00 | 70 | 1010.6 |
| 20260510001703 | 27 | 145 | 1.6 | 3.2 | 0.00 | 0.00 | 0.00 | 70 | 1010.6 |
| 20260510001201 | 27 | 144 | 3.2 | 4.8 | 0.00 | 0.00 | 0.00 | 70 | 1010.5 |
| 20260510000656 | 27 | 145 | 1.6 | 1.6 | 0.00 | 0.00 | 0.00 | 70 | 1010.4 |
| 20260510000154 | 27 | 145 | 1.6 | 3.2 | 0.00 | 0.00 | 0.00 | 69 | 1010.4 |
| 20260509235651 | 27 | 116 | 4.8 | 6.4 | 0.00 | 0.00 | 0.00 | 66 | 1010.5 |
| 20260509235147 | 27 | 117 | 4.8 | 4.8 | 0.00 | 0.00 | 0.00 | 64 | 1010.5 |
| 20260509234643 | 27 | 117 | 1.6 | 1.6 | 0.00 | 0.00 | 0.00 | 66 | 1010.5 |
| 20260509234140 | 27 | 90 | 3.2 | 3.2 | 0.00 | 0.00 | 0.00 | 66 | 1010.6 |
| 20260509233638 | 27 | 90 | 4.8 | 4.8 | 0.00 | 0.00 | 0.00 | 69 | 1010.7 |
| 20260509233135 | 26 | 45 | 4.8 | 6.4 | 0.00 | 0.00 | 0.00 | 69 | 1010.4 |
| 20260509232631 | 26 | 98 | 1.6 | 3.2 | 0.00 | 0.00 | 0.00 | 70 | 1010.5 |
| 20260509232128 | 27 | 98 | 3.2 | 3.2 | 0.00 | 0.00 | 0.00 | 70 | 1010.6 |
| 20260509231625 | 27 | 96 | 4.8 | 4.8 | 0.00 | 0.00 | 0.00 | 72 | 1010.3 |
| 20260509231123 | 27 | 103 | 3.2 | 3.2 | 0.00 | 0.00 | 0.00 | 69 | 1010.4 |
| 20260509230619 | 28 | 105 | 4.8 | 6.4 | 0.00 | 0.00 | 0.00 | 69 | 1010.6 |
| 20260509230116 | 28 | 60 | 1.6 | 3.2 | 0.00 | 0.00 | 0.00 | 68 | 1010.2 |
| 20260509225612 | 28 | 102 | 4.8 | 6.4 | 0.00 | 0.00 | 0.00 | 66 | 1010.4 |
| 20260509225108 | 28 | 51 | 1.6 | 3.2 | 0.00 | 0.00 | 0.00 | 66 | 1010.4 |
| 20260509224603 | 28 | 51 | 1.6 | 3.2 | 0.00 | 0.00 | 0.00 | 67 | 1010.2 |
| 20260509224101 | 28 | 50 | 6.4 | 9.7 | 0.00 | 0.00 | 0.00 | 63 | 1010.5 |
| 20260509223557 | 28 | 115 | 1.6 | 1.6 | 0.00 | 0.00 | 0.00 | 66 | 1010.5 |
| 20260509223055 | 28 | 95 | 3.2 | 4.8 | 0.00 | 0.00 | 0.00 | 64 | 1010.4 |
| 20260509222551 | 27 | 102 | 1.6 | 3.2 | 0.00 | 0.00 | 0.00 | 65 | 1010.3 |
| 20260509222047 | 28 | 116 | 9.7 | 11.3 | 0.00 | 0.00 | 0.00 | 63 | 1010.4 |
| 20260509221543 | 28 | 175 | 4.8 | 4.8 | 0.00 | 0.00 | 0.00 | 62 | 1010.5 |
| 20260509221039 | 28 | 141 | 6.4 | 6.4 | 0.00 | 0.00 | 0.00 | 66 | 1010.4 |
| 20260509220535 | 29 | 67 | 12.9 | 14.5 | 0.00 | 0.00 | 0.00 | 64 | 1010.2 |
| 20260509220031 | 28 | 187 | 0.0 | 0.0 | 0.00 | 0.00 | 0.00 | 59 | 1010.3 |
| 20260509215526 | 28 | 187 | 1.6 | 3.2 | 0.00 | 0.00 | 0.00 | 60 | 1010.4 |
| 20260509215024 | 28 | 187 | 4.8 | 4.8 | 0.00 | 0.00 | 0.00 | 62 | 1010.4 |
| 20260509214521 | 28 | 161 | 3.2 | 3.2 | 0.00 | 0.00 | 0.00 | 62 | 1010.2 |
| 20260509214018 | 28 | 59 | 0.0 | 1.6 | 0.00 | 0.00 | 0.00 | 63 | 1010.4 |
| 20260509213514 | 28 | 90 | 6.4 | 6.4 | 0.00 | 0.00 | 0.00 | 63 | 1010.4 |
| 20260509213011 | 29 | 110 | 4.8 | 6.4 | 0.00 | 0.00 | 0.00 | 63 | 1010.7 |
| 20260509212508 | 28 | 109 | 3.2 | 3.2 | 0.00 | 0.00 | 0.00 | 62 | 1010.7 |
| 20260509212006 | 28 | 110 | 0.0 | 1.6 | 0.00 | 0.00 | 0.00 | 65 | 1010.7 |
| 20260509211506 | 28 | 110 | 3.2 | 4.8 | 0.00 | 0.00 | 0.00 | 66 | 1010.9 |
| 20260509211003 | 27 | 110 | 4.8 | 4.8 | 0.00 | 0.00 | 0.00 | 71 | 1010.8 |
| 20260509210500 | 27 | 99 | 3.2 | 3.2 | 0.00 | 0.00 | 0.00 | 70 | 1010.8 |
| 20260509205955 | 28 | 148 | 3.2 | 3.2 | 0.00 | 0.00 | 0.00 | 68 | 1011.2 |
| 20260509205450 | 28 | 113 | 1.6 | 3.2 | 0.00 | 0.00 | 0.00 | 62 | 1010.9 |
| 20260509204946 | 28 | 114 | 4.8 | 4.8 | 0.00 | 0.00 | 0.00 | 63 | 1011.1 |
| 20260509204443 | 29 | 89 | 0.0 | 1.6 | 0.00 | 0.00 | 0.00 | 60 | 1011.0 |
| 20260509203939 | 28 | 127 | 1.6 | 1.6 | 0.00 | 0.00 | 0.00 | 61 | 1011.2 |
| 20260509203435 | 28 | 127 | 4.8 | 6.4 | 0.00 | 0.00 | 0.00 | 70 | 1011.2 |
| 20260509202933 | 28 | 164 | 4.8 | 9.7 | 0.00 | 0.00 | 0.00 | 72 | 1011.2 |
| 20260509202429 | 27 | 68 | 4.8 | 4.8 | 0.00 | 0.00 | 0.00 | 69 | 1011.3 |
| 20260509201924 | 27 | 67 | 3.2 | 3.2 | 0.00 | 0.00 | 0.00 | 72 | 1011.5 |
| 20260509201419 | 26 | 48 | 6.4 | 6.4 | 0.00 | 0.00 | 0.00 | 75 | 1011.5 |
| 20260509200917 | 26 | 13 | 3.2 | 3.2 | 0.00 | 0.00 | 0.00 | 71 | 1011.6 |
| 20260509200416 | 27 | 38 | 6.4 | 9.7 | 0.00 | 0.00 | 0.00 | 72 | 1011.6 |
| 20260509195913 | 27 | 34 | 1.6 | 3.2 | 0.00 | 0.00 | 0.00 | 72 | 1011.8 |
| 20260509195409 | 27 | 13 | 3.2 | 3.2 | 0.00 | 0.00 | 0.00 | 71 | 1011.7 |
| 20260509194908 | 27 | 99 | 3.2 | 3.2 | 0.00 | 0.00 | 0.00 | 73 | 1011.6 |
| 20260509194405 | 27 | 340 | 0.0 | 0.0 | 0.00 | 0.00 | 0.00 | 70 | 1011.8 |
| 20260509193901 | 27 | 340 | 4.8 | 4.8 | 0.00 | 0.00 | 0.00 | 71 | 1011.8 |
| 20260509193356 | 27 | 39 | 3.2 | 4.8 | 0.00 | 0.00 | 0.00 | 76 | 1011.8 |
| 20260509192852 | 27 | 56 | 0.0 | 1.6 | 0.00 | 0.00 | 0.00 | 73 | 1011.9 |
| 20260509192348 | 27 | 81 | 1.6 | 1.6 | 0.00 | 0.00 | 0.00 | 74 | 1011.8 |
| 20260509191844 | 27 | 110 | 6.4 | 9.7 | 0.00 | 0.00 | 0.00 | 76 | 1011.9 |
| 20260509191340 | 26 | 109 | 8.0 | 9.7 | 0.00 | 0.00 | 0.00 | 77 | 1011.8 |
| 20260509190836 | 27 | 106 | 14.5 | 14.5 | 0.00 | 0.00 | 0.00 | 77 | 1012.0 |
| 20260509190333 | 27 | 42 | 1.6 | 1.6 | 0.00 | 0.00 | 0.00 | 77 | 1012.0 |
| 20260509185830 | 26 | 35 | 3.2 | 4.8 | 0.00 | 0.00 | 0.00 | 79 | 1012.1 |
| 20260509185327 | 26 | 89 | 1.6 | 3.2 | 0.00 | 0.00 | 0.00 | 82 | 1012.2 |
| 20260509184824 | 26 | 41 | 1.6 | 1.6 | 0.00 | 0.00 | 0.00 | 79 | 1012.2 |
| 20260509184321 | 26 | 41 | 3.2 | 3.2 | 0.00 | 0.00 | 0.00 | 79 | 1012.3 |
| 20260509183817 | 25 | 41 | 4.8 | 4.8 | 0.00 | 0.00 | 0.00 | 80 | 1012.2 |
| 20260509183307 | 26 | 42 | 3.2 | 3.2 | 0.00 | 0.00 | 0.00 | 80 | 1012.3 |
| 20260509182803 | 26 | 76 | 3.2 | 3.2 | 0.00 | 0.00 | 0.00 | 79 | 1012.3 |
| 20260509182300 | 26 | 76 | 1.6 | 1.6 | 0.00 | 0.00 | 0.00 | 79 | 1012.1 |
| 20260509181757 | 26 | 251 | 1.6 | 3.2 | 0.00 | 0.00 | 0.00 | 79 | 1012.4 |
| 20260509181255 | 26 | 57 | 0.0 | 0.0 | 0.00 | 0.00 | 0.00 | 80 | 1012.3 |
| 20260509180752 | 25 | 56 | 3.2 | 4.8 | 0.00 | 0.00 | 0.00 | 83 | 1012.3 |
| 20260509180248 | 26 | 51 | 8.0 | 11.3 | 0.00 | 0.00 | 0.00 | 83 | 1012.4 |
| 20260509175745 | 26 | 34 | 6.4 | 9.7 | 0.00 | 0.00 | 0.00 | 80 | 1012.3 |
| 20260509175241 | 26 | 98 | 3.2 | 3.2 | 0.00 | 0.00 | 0.00 | 79 | 1012.6 |
| 20260509174737 | 26 | 19 | 1.6 | 1.6 | 0.00 | 0.00 | 0.00 | 78 | 1012.5 |
| 20260509174233 | 25 | 341 | 6.4 | 9.7 | 0.00 | 0.00 | 0.00 | 80 | 1012.7 |
| 20260509173729 | 25 | 35 | 0.0 | 1.6 | 0.00 | 0.00 | 0.00 | 83 | 1012.7 |
| 20260509173225 | 25 | 36 | 6.4 | 6.4 | 0.00 | 0.00 | 0.00 | 82 | 1013.0 |
| 20260509172721 | 25 | 358 | 6.4 | 6.4 | 0.00 | 0.00 | 0.00 | 82 | 1012.5 |
| 20260509172218 | 25 | 351 | 4.8 | 4.8 | 0.00 | 0.00 | 0.00 | 83 | 1012.8 |
| 20260509171713 | 25 | 7 | 1.6 | 4.8 | 0.00 | 0.00 | 0.00 | 84 | 1012.9 |
| 20260509171210 | 25 | 349 | 3.2 | 3.2 | 0.00 | 0.00 | 0.00 | 83 | 1012.9 |
| 20260509170707 | 25 | 22 | 4.8 | 4.8 | 0.00 | 0.00 | 0.00 | 83 | 1012.8 |
| 20260509170202 | 24 | 351 | 6.4 | 6.4 | 0.00 | 0.00 | 0.00 | 84 | 1012.9 |
| 20260509165701 | 25 | 23 | 1.6 | 1.6 | 0.00 | 0.00 | 0.00 | 83 | 1012.9 |
| 20260509165156 | 25 | 359 | 14.5 | 14.5 | 0.00 | 0.00 | 0.00 | 83 | 1012.9 |
| 20260509164653 | 25 | 0 | 9.7 | 11.3 | 0.00 | 0.00 | 0.00 | 83 | 1013.0 |
| 20260509164148 | 24 | 340 | 8.0 | 9.7 | 0.00 | 0.00 | 0.00 | 84 | 1012.9 |
| 20260509163646 | 24 | 358 | 4.8 | 6.4 | 0.00 | 0.00 | 0.00 | 85 | 1012.9 |
| 20260509163142 | 24 | 346 | 12.9 | 14.5 | 0.00 | 0.00 | 0.00 | 85 | 1012.9 |
| 20260509162640 | 23 | 344 | 6.4 | 6.4 | 0.00 | 0.00 | 0.00 | 87 | 1012.9 |
| 20260509162135 | 23 | 39 | 3.2 | 3.2 | 0.00 | 0.00 | 0.00 | 87 | 1012.8 |
| 20260509161631 | 23 | 20 | 1.6 | 3.2 | 0.00 | 0.00 | 0.00 | 88 | 1012.7 |
| 20260509161126 | 23 | 20 | 1.6 | 3.2 | 0.00 | 0.00 | 0.00 | 87 | 1012.8 |
| 20260509160623 | 23 | 346 | 6.4 | 6.4 | 0.00 | 0.00 | 0.00 | 87 | 1012.6 |
| 20260509160118 | 23 | 20 | 3.2 | 4.8 | 0.00 | 0.00 | 0.00 | 89 | 1012.7 |
| 20260509155615 | 23 | 38 | 4.8 | 6.4 | 0.00 | 0.00 | 0.00 | 87 | 1012.4 |
| 20260509155111 | 23 | 49 | 4.8 | 6.4 | 0.00 | 0.00 | 0.00 | 89 | 1012.5 |
| 20260509154607 | 23 | 49 | 3.2 | 3.2 | 0.00 | 0.00 | 0.00 | 90 | 1012.6 |
| 20260509154104 | 23 | 45 | 3.2 | 3.2 | 0.00 | 0.00 | 0.00 | 90 | 1012.6 |
| 20260509153601 | 22 | 46 | 4.8 | 4.8 | 0.00 | 0.00 | 0.00 | 90 | 1012.8 |
| 20260509153058 | 22 | 43 | 8.0 | 9.7 | 0.00 | 0.00 | 0.00 | 90 | 1012.5 |
| 20260509152554 | 23 | 17 | 3.2 | 4.8 | 0.00 | 0.00 | 0.00 | 89 | 1012.4 |
| 20260509152051 | 22 | 48 | 0.0 | 1.6 | 0.00 | 0.00 | 0.00 | 91 | 1012.7 |
| 20260509151547 | 22 | 105 | 0.0 | 1.6 | 0.00 | 0.00 | 0.00 | 92 | 1012.8 |
| 20260509151045 | 22 | 105 | 1.6 | 3.2 | 0.00 | 0.00 | 0.00 | 93 | 1012.9 |
| 20260509150543 | 21 | 106 | 3.2 | 3.2 | 0.00 | 0.00 | 0.00 | 93 | 1012.8 |
| 20260509150041 | 21 | 106 | 3.2 | 3.2 | 0.00 | 0.00 | 0.00 | 93 | 1013.0 |
| 20260509145536 | 21 | 106 | 0.0 | 0.0 | 0.00 | 0.00 | 0.00 | 94 | 1012.9 |
| 20260509145031 | 21 | 106 | 1.6 | 1.6 | 0.00 | 0.00 | 0.00 | 95 | 1013.0 |
| 20260509144529 | 20 | 106 | 4.8 | 4.8 | 0.00 | 0.00 | 0.00 | 95 | 1012.9 |
| 20260509144026 | 20 | 107 | 0.0 | 1.6 | 0.00 | 0.00 | 0.00 | 96 | 1012.8 |
| 20260509143523 | 20 | 106 | 4.8 | 6.4 | 0.00 | 0.00 | 0.00 | 96 | 1012.9 |
| 20260509143021 | 20 | 107 | 3.2 | 4.8 | 0.00 | 0.00 | 0.00 | 96 | 1013.0 |
| 20260509142516 | 20 | 107 | 3.2 | 3.2 | 0.00 | 0.00 | 0.00 | 96 | 1013.1 |
| 20260509142011 | 20 | 107 | 3.2 | 4.8 | 0.00 | 0.00 | 0.00 | 96 | 1012.9 |
| 20260509141508 | 20 | 107 | 1.6 | 1.6 | 0.00 | 0.00 | 0.00 | 96 | 1012.9 |
| 20260509141005 | 20 | 106 | 6.4 | 6.4 | 0.00 | 0.00 | 0.00 | 96 | 1013.0 |
| 20260509140502 | 20 | 79 | 6.4 | 6.4 | 0.00 | 0.00 | 0.00 | 96 | 1012.9 |
| 20260509140000 | 20 | 118 | 4.8 | 4.8 | 0.00 | 0.00 | 0.00 | 96 | 1013.1 |
| 20260509135457 | 20 | 95 | 1.6 | 1.6 | 0.00 | 0.00 | 0.00 | 96 | 1013.0 |
| 20260509134954 | 20 | 95 | 3.2 | 4.8 | 0.00 | 0.00 | 0.00 | 96 | 1013.0 |
| 20260509134451 | 20 | 105 | 3.2 | 3.2 | 0.00 | 0.00 | 0.00 | 95 | 1013.0 |
| 20260509133949 | 20 | 117 | 4.8 | 4.8 | 0.00 | 0.00 | 0.00 | 95 | 1013.0 |
| 20260509133445 | 20 | 107 | 6.4 | 6.4 | 0.00 | 0.00 | 0.00 | 95 | 1013.0 |
| 20260509132943 | 20 | 107 | 3.2 | 3.2 | 0.00 | 0.00 | 0.00 | 95 | 1012.8 |
| 20260509132441 | 19 | 99 | 6.4 | 6.4 | 0.00 | 0.00 | 0.00 | 95 | 1012.9 |
| 20260509131938 | 19 | 111 | 1.6 | 1.6 | 0.00 | 0.00 | 0.00 | 95 | 1012.9 |
| 20260509131435 | 19 | 142 | 4.8 | 4.8 | 0.00 | 0.00 | 0.00 | 95 | 1013.0 |
| 20260509130932 | 19 | 142 | 1.6 | 1.6 | 0.00 | 0.00 | 0.00 | 95 | 1013.1 |
| 20260509130427 | 19 | 143 | 3.2 | 4.8 | 0.00 | 0.00 | 0.00 | 95 | 1013.1 |
| 20260509125924 | 20 | 144 | 3.2 | 4.8 | 0.00 | 0.00 | 0.00 | 95 | 1013.1 |
| 20260509125421 | 19 | 144 | 4.8 | 4.8 | 0.00 | 0.00 | 0.00 | 95 | 1013.0 |
| 20260509124917 | 19 | 192 | 4.8 | 4.8 | 0.00 | 0.00 | 0.00 | 95 | 1012.9 |
| 20260509124414 | 19 | 179 | 4.8 | 6.4 | 0.00 | 0.00 | 0.00 | 95 | 1012.7 |
| 20260509123912 | 19 | 118 | 4.8 | 4.8 | 0.00 | 0.00 | 0.00 | 95 | 1013.0 |
| 20260509123409 | 18 | 155 | 4.8 | 4.8 | 0.00 | 0.00 | 0.00 | 96 | 1013.0 |
| 20260509122904 | 18 | 109 | 6.4 | 6.4 | 0.00 | 0.00 | 0.00 | 96 | 1012.9 |
| 20260509122402 | 18 | 96 | 3.2 | 4.8 | 0.00 | 0.00 | 0.00 | 96 | 1012.8 |
| 20260509121858 | 18 | 96 | 3.2 | 3.2 | 0.00 | 0.00 | 0.00 | 96 | 1012.8 |
| 20260509121355 | 18 | 96 | 3.2 | 3.2 | 0.00 | 0.00 | 0.00 | 96 | 1012.7 |
| 20260509120854 | 18 | 96 | 3.2 | 3.2 | 0.00 | 0.00 | 0.00 | 96 | 1012.6 |
| 20260509120351 | 18 | 96 | 4.8 | 4.8 | 0.00 | 0.00 | 0.00 | 97 | 1012.5 |
| 20260509115849 | 18 | 96 | 3.2 | 3.2 | 0.00 | 0.00 | 0.00 | 97 | 1012.5 |
| 20260509115346 | 18 | 96 | 0.0 | 1.6 | 0.00 | 0.00 | 0.00 | 97 | 1012.5 |
| 20260509114844 | 18 | 97 | 1.6 | 3.2 | 0.00 | 0.00 | 0.00 | 97 | 1012.6 |
| 20260509114342 | 18 | 97 | 1.6 | 3.2 | 0.00 | 0.00 | 0.00 | 96 | 1012.4 |
| 20260509113841 | 18 | 96 | 3.2 | 3.2 | 0.00 | 0.00 | 0.00 | 96 | 1012.3 |
| 20260509113338 | 18 | 96 | 1.6 | 1.6 | 0.00 | 0.00 | 0.00 | 97 | 1012.1 |
| 20260509112834 | 18 | 96 | 1.6 | 1.6 | 0.00 | 0.00 | 0.00 | 97 | 1011.8 |
| 20260509112332 | 18 | 96 | 1.6 | 1.6 | 0.00 | 0.00 | 0.00 | 96 | 1011.9 |
| 20260509111829 | 18 | 96 | 1.6 | 1.6 | 0.00 | 0.00 | 0.00 | 96 | 1011.8 |
| 20260509111325 | 18 | 96 | 0.0 | 0.0 | 0.00 | 0.00 | 0.00 | 96 | 1011.9 |
| 20260509110823 | 18 | 96 | 0.0 | 0.0 | 0.00 | 0.00 | 0.00 | 97 | 1011.8 |
| 20260509110319 | 18 | 96 | 1.6 | 3.2 | 0.00 | 0.00 | 0.00 | 97 | 1011.4 |
| 20260509105817 | 18 | 96 | 0.0 | 3.2 | 0.00 | 0.00 | 0.00 | 97 | 1011.3 |
| 20260509105315 | 18 | 96 | 0.0 | 0.0 | 0.00 | 0.00 | 0.00 | 97 | 1011.4 |
| 20260509104812 | 18 | 96 | 3.2 | 3.2 | 0.00 | 0.00 | 0.00 | 97 | 1011.6 |
| 20260509104308 | 18 | 96 | 3.2 | 3.2 | 0.00 | 0.00 | 0.00 | 96 | 1011.3 |
| 20260509103806 | 18 | 96 | 0.0 | 0.0 | 0.00 | 0.00 | 0.00 | 96 | 1011.4 |
| 20260509103303 | 18 | 96 | 0.0 | 0.0 | 0.00 | 0.00 | 0.00 | 96 | 1011.4 |
| 20260509102802 | 18 | 96 | 1.6 | 3.2 | 0.00 | 0.00 | 0.00 | 96 | 1011.4 |
| 20260509102259 | 18 | 96 | 1.6 | 1.6 | 0.00 | 0.00 | 0.00 | 96 | 1011.1 |
| 20260509101755 | 18 | 97 | 0.0 | 1.6 | 0.00 | 0.00 | 0.00 | 96 | 1011.3 |
| 20260509101251 | 18 | 97 | 1.6 | 3.2 | 0.00 | 0.00 | 0.00 | 96 | 1011.2 |
| 20260509100749 | 18 | 65 | 1.6 | 3.2 | 0.00 | 0.00 | 0.00 | 96 | 1011.2 |
| 20260509100246 | 18 | 65 | 1.6 | 1.6 | 0.00 | 0.00 | 0.00 | 96 | 1011.2 |
| 20260509095742 | 18 | 101 | 1.6 | 3.2 | 0.00 | 0.00 | 0.00 | 96 | 1011.4 |
| 20260509095240 | 18 | 101 | 4.8 | 4.8 | 0.00 | 0.00 | 0.00 | 96 | 1011.5 |
| 20260509094737 | 18 | 101 | 3.2 | 3.2 | 0.00 | 0.00 | 0.00 | 96 | 1011.4 |
| 20260509094233 | 18 | 101 | 1.6 | 1.6 | 0.00 | 0.00 | 0.00 | 96 | 1011.4 |
| 20260509093731 | 18 | 101 | 0.0 | 1.6 | 0.00 | 0.00 | 0.00 | 97 | 1011.2 |
| 20260509093228 | 18 | 101 | 0.0 | 1.6 | 0.00 | 0.00 | 0.00 | 96 | 1011.4 |
| 20260509092727 | 18 | 101 | 1.6 | 1.6 | 0.00 | 0.00 | 0.00 | 96 | 1011.5 |
| 20260509092224 | 18 | 101 | 1.6 | 3.2 | 0.00 | 0.00 | 0.00 | 97 | 1011.4 |
| 20260509091722 | 18 | 101 | 0.0 | 0.0 | 0.00 | 0.00 | 0.00 | 96 | 1011.1 |
| 20260509091218 | 18 | 101 | 1.6 | 3.2 | 0.00 | 0.00 | 0.00 | 96 | 1011.3 |
| 20260509090716 | 18 | 101 | 3.2 | 3.2 | 0.00 | 0.00 | 0.00 | 96 | 1011.2 |
| 20260509090213 | 18 | 101 | 0.0 | 0.0 | 0.00 | 0.00 | 0.00 | 95 | 1011.4 |
| 20260509085711 | 18 | 101 | 0.0 | 0.0 | 0.00 | 0.00 | 0.00 | 95 | 1011.5 |
| 20260509085207 | 18 | 101 | 0.0 | 0.0 | 0.00 | 0.00 | 0.00 | 95 | 1011.4 |
| 20260509084704 | 18 | 101 | 1.6 | 1.6 | 0.00 | 0.00 | 0.00 | 95 | 1011.7 |
| 20260509084201 | 18 | 101 | 1.6 | 1.6 | 0.00 | 0.00 | 0.00 | 94 | 1011.5 |
| 20260509083659 | 18 | 101 | 0.0 | 1.6 | 0.00 | 0.00 | 0.00 | 94 | 1011.8 |
| 20260509083155 | 18 | 101 | 1.6 | 1.6 | 0.00 | 0.00 | 0.00 | 94 | 1011.7 |
| 20260509082652 | 18 | 101 | 1.6 | 1.6 | 0.00 | 0.00 | 0.00 | 94 | 1011.6 |
| 20260509082148 | 18 | 101 | 0.0 | 0.0 | 0.00 | 0.00 | 0.00 | 94 | 1011.8 |
| 20260509081645 | 18 | 101 | 1.6 | 3.2 | 0.00 | 0.00 | 0.00 | 94 | 1011.8 |
| 20260509081143 | 18 | 101 | 3.2 | 3.2 | 0.00 | 0.00 | 0.00 | 94 | 1012.0 |
| 20260509080641 | 18 | 101 | 1.6 | 1.6 | 0.00 | 0.00 | 0.00 | 94 | 1011.8 |
| 20260509080139 | 18 | 101 | 1.6 | 3.2 | 0.00 | 0.00 | 0.00 | 95 | 1011.9 |
| 20260509075637 | 18 | 101 | 1.6 | 3.2 | 0.00 | 0.00 | 0.00 | 95 | 1012.1 |
| 20260509075134 | 18 | 101 | 3.2 | 4.8 | 0.00 | 0.00 | 0.00 | 95 | 1012.1 |
| 20260509074631 | 18 | 92 | 1.6 | 1.6 | 0.00 | 0.00 | 0.00 | 95 | 1012.1 |
| 20260509074127 | 18 | 105 | 3.2 | 3.2 | 0.00 | 0.00 | 0.00 | 95 | 1012.2 |
| 20260509073624 | 18 | 89 | 3.2 | 3.2 | 0.00 | 0.00 | 0.00 | 94 | 1012.2 |
| 20260509073120 | 18 | 88 | 3.2 | 3.2 | 0.00 | 0.00 | 0.00 | 92 | 1012.4 |
| 20260509072617 | 18 | 88 | 0.0 | 0.0 | 0.00 | 0.00 | 0.00 | 93 | 1012.1 |
| 20260509072114 | 18 | 88 | 0.0 | 1.6 | 0.00 | 0.00 | 0.00 | 94 | 1012.2 |
| 20260509071610 | 18 | 88 | 1.6 | 3.2 | 0.00 | 0.00 | 0.00 | 94 | 1012.2 |
| 20260509071108 | 18 | 88 | 1.6 | 3.2 | 0.00 | 0.00 | 0.00 | 95 | 1012.2 |
| 20260509070605 | 18 | 117 | 3.2 | 3.2 | 0.00 | 0.00 | 0.00 | 94 | 1011.9 |
| 20260509070101 | 18 | 119 | 3.2 | 4.8 | 0.00 | 0.00 | 0.00 | 95 | 1011.8 |
| 20260509065556 | 18 | 177 | 6.4 | 9.7 | 0.00 | 0.00 | 0.00 | 94 | 1011.9 |
| 20260509065053 | 18 | 191 | 4.8 | 4.8 | 0.00 | 0.00 | 0.00 | 95 | 1012.2 |
| 20260509064550 | 18 | 191 | 3.2 | 3.2 | 0.00 | 0.00 | 0.00 | 94 | 1012.5 |
| 20260509064048 | 18 | 191 | 1.6 | 1.6 | 0.00 | 0.00 | 0.00 | 94 | 1012.7 |
| 20260509063544 | 18 | 191 | 0.0 | 1.6 | 0.00 | 0.00 | 0.00 | 93 | 1012.7 |
| 20260509063041 | 18 | 191 | 0.0 | 0.0 | 0.00 | 0.00 | 0.00 | 93 | 1012.6 |
| 20260509062538 | 18 | 191 | 1.6 | 1.6 | 0.00 | 0.00 | 0.00 | 93 | 1012.7 |
| 20260509062036 | 18 | 191 | 1.6 | 1.6 | 0.00 | 0.00 | 0.00 | 94 | 1012.5 |
| 20260509061532 | 18 | 191 | 1.6 | 3.2 | 0.00 | 0.00 | 0.00 | 94 | 1012.6 |
| 20260509061030 | 18 | 191 | 0.0 | 0.0 | 0.00 | 0.00 | 0.00 | 94 | 1012.8 |
| 20260509060527 | 18 | 191 | 0.0 | 0.0 | 0.00 | 0.00 | 0.00 | 94 | 1013.0 |
| 20260509060023 | 18 | 191 | 0.0 | 0.0 | 0.00 | 0.00 | 0.00 | 94 | 1012.8 |
| 20260509055518 | 18 | 191 | 1.6 | 1.6 | 0.00 | 0.00 | 0.00 | 93 | 1012.7 |
| 20260509055015 | 18 | 191 | 1.6 | 3.2 | 0.00 | 0.00 | 0.00 | 92 | 1012.5 |
| 20260509054512 | 18 | 192 | 3.2 | 4.8 | 0.00 | 0.00 | 0.00 | 92 | 1012.4 |
| 20260509054010 | 18 | 192 | 1.6 | 3.2 | 0.00 | 0.00 | 0.00 | 92 | 1012.7 |
| 20260509053508 | 18 | 189 | 3.2 | 3.2 | 0.00 | 0.00 | 0.00 | 91 | 1012.6 |
| 20260509053005 | 18 | 139 | 3.2 | 3.2 | 0.00 | 0.00 | 0.00 | 92 | 1012.7 |
| 20260509052502 | 18 | 112 | 3.2 | 4.8 | 0.00 | 0.00 | 0.00 | 92 | 1012.6 |